EW6362 Weather Reports


time (UTC)temp
C
wind
direction
speed
KPH
gust
KPH
rain 1hr
cm
rain 24hr
cm
rain mn
cm
humidity
%
barometer
mb
20260504204623 -17 212 0.0 0.0 0.00 0.00 0.00 1015.5
20260504204123 -17 236 0.0 0.0 0.00 0.00 0.00 1015.6
20260504203851 -17 258 0.0 0.0 0.00 0.00 0.00 1015.7
20260504203119 -17 255 0.0 0.0 0.00 0.00 0.00 1015.8
20260504202620 -17 212 0.0 0.0 0.00 0.00 0.00 1015.8
20260504202350 -17 238 0.0 0.0 0.00 0.00 0.00 1015.9
20260504202227 -17 215 0.0 0.0 0.00 0.00 0.00 1016.0
20260504201350 -17 241 0.0 0.0 0.00 0.00 0.00 1016.1
20260504200616 -17 242 0.0 0.0 0.00 0.00 0.00 1016.3
20260504200115 -17 255 0.0 0.0 0.00 0.00 0.00 1016.3
20260504195615 -17 282 0.0 0.0 0.00 0.00 0.00 1016.4
20260504195116 -17 246 0.0 0.0 0.00 0.00 0.00 1016.5
20260504194616 -17 272 0.0 0.0 0.00 0.00 0.00 1016.6
20260504194348 -17 263 0.0 0.0 0.00 0.00 0.00 1016.7
20260504193615 -17 217 0.0 0.0 0.00 0.00 0.00 1016.7
20260504193115 -17 248 0.0 0.0 0.00 0.00 0.00 1016.7
20260504192847 -17 221 0.0 0.0 0.00 0.00 0.00 1016.9
20260504192347 -17 285 0.0 0.0 0.00 0.00 0.00 1016.8
20260504191618 -17 256 0.0 0.0 0.00 0.00 0.00 1016.7
20260504191111 -17 214 0.0 0.0 0.00 0.00 0.00 1016.7
20260504190840 -17 259 0.0 0.0 0.00 0.00 0.00 1016.8
20260504190108 -17 271 0.0 0.0 0.00 0.00 0.00 1017.1
20260504185606 -17 252 0.0 0.0 0.00 0.00 0.00 1017.0
20260504185057 -17 250 0.0 0.0 0.00 0.00 0.00 1017.1
20260504184826 -17 223 0.0 0.0 0.00 0.00 0.00 1017.1
20260504184055 -17 244 0.0 0.0 0.00 0.00 0.00 1017.2
20260504183555 -17 215 0.0 0.0 0.00 0.00 0.00 1017.3
20260504183055 -17 251 0.0 0.0 0.00 0.00 0.00 1017.3
20260504182826 -17 215 0.0 0.0 0.00 0.00 0.00 1017.3
20260504182051 -17 232 0.0 0.0 0.00 0.00 0.00 1017.4
20260504181551 -17 286 0.0 0.0 0.00 0.00 0.00 1017.2
20260504181051 -17 252 0.0 0.0 0.00 0.00 0.00 1017.3
20260504180551 -17 274 0.0 0.0 0.00 0.00 0.00 1017.3
20260504180051 -17 161 0.0 0.0 0.00 0.00 0.00 1017.4
20260504175822 -17 152 0.0 0.0 0.00 0.00 0.00 1017.4
20260504175052 -17 250 0.0 0.0 0.00 0.00 0.00 1017.5
20260504174820 -17 202 0.0 0.0 0.00 0.00 0.00 1017.7
20260504174047 -17 177 0.0 0.0 0.00 0.00 0.00 1017.6
20260504173818 -17 234 0.0 0.0 0.00 0.00 0.00 1017.6
20260504173047 -17 211 0.0 0.0 0.00 0.00 0.00 1017.7
20260504172545 -17 126 0.0 0.0 0.00 0.00 0.00 1017.5
20260504172044 -17 188 0.0 0.0 0.00 0.00 0.00 1017.5
20260504171543 -17 207 0.0 0.0 0.00 0.00 0.00 1017.7
20260504171041 -17 169 0.0 0.0 0.00 0.00 0.00 1017.8
20260504170542 -17 123 0.0 0.0 0.00 0.00 0.00 1017.5
20260504151017 -17 166 0.0 0.0 0.00 0.00 0.00 1018.4
20260504150517 -17 149 0.0 0.0 0.00 0.00 0.00 1018.3
20260504141007 -17 338 0.0 0.0 0.00 0.00 0.00 1018.5
20260504140505 -17 338 0.0 0.0 0.00 0.00 0.00 1018.5
20260504130456 -17 11 0.0 0.0 0.00 0.00 0.00 1018.5
20260504120222 -17 11 0.0 0.0 0.00 0.00 0.00 1018.0
20260504110432 -17 248 0.0 0.0 0.00 0.00 0.00 1017.7
20260504081830 -17 249 0.0 0.0 0.00 0.00 0.00 1017.6
20260504081328 -17 249 0.0 0.0 0.00 0.00 0.00 1017.7
20260504080829 -17 249 0.0 0.0 0.00 0.00 0.00 1017.8
20260504080322 -17 249 0.0 0.0 0.00 0.00 0.00 1017.8
20260504070301 -17 249 0.0 0.0 0.00 0.00 0.00 1018.5
20260504060237 -17 249 0.0 0.0 0.00 0.00 0.00 1019.0
20260504050715 -17 263 0.0 0.0 0.00 0.00 0.00 1019.4
20260504050213 -17 265 0.0 0.0 0.00 0.00 0.00 1019.5
20260504045714 -17 265 0.0 0.0 0.00 0.00 0.00 1019.5
20260504045207 -17 265 0.0 0.0 0.00 0.00 0.00 1019.5
20260504044936 -17 266 0.0 0.0 0.00 0.00 0.00 1019.5
20260504044203 -17 266 0.0 0.0 0.00 0.00 0.00 1019.5
20260504043701 -17 266 0.0 0.0 0.00 0.00 0.00 1019.7
20260504043202 -17 266 0.0 0.0 0.00 0.00 0.00 1019.7
20260504042659 -17 267 0.0 0.0 0.00 0.00 0.00 1019.7
20260504042156 -17 249 0.0 0.0 0.00 0.00 0.00 1019.6
20260504041657 -17 249 0.0 0.0 0.00 0.00 0.00 1019.8
20260504041157 -17 244 0.0 0.0 0.00 0.00 0.00 1019.7
20260504040655 -17 244 0.0 0.0 0.00 0.00 0.00 1019.6
20260504040156 -17 241 0.0 0.0 0.00 0.00 0.00 1019.6
20260504035650 -17 239 0.0 0.0 0.00 0.00 0.00 1019.5
20260504035147 -17 243 0.0 0.0 0.00 0.00 0.00 1019.4
20260504034916 -17 242 0.0 0.0 0.00 0.00 0.00 1019.5
20260504034144 -17 242 0.0 0.0 0.00 0.00 0.00 1019.6
20260504033643 -17 242 0.0 0.0 0.00 0.00 0.00 1019.5
20260504033142 -17 242 0.0 0.0 0.00 0.00 0.00 1019.6
20260504032912 -17 229 0.0 0.0 0.00 0.00 0.00 1019.6
20260504032142 -17 229 0.0 0.0 0.00 0.00 0.00 1019.6
20260504032138 -17 229 0.0 0.0 0.00 0.00 0.00 1019.6
20260504031135 -17 229 0.0 0.0 0.00 0.00 0.00 1019.7
20260504030635 -17 223 0.0 0.0 0.00 0.00 0.00 1019.6
20260504030401 -17 210 0.0 0.0 0.00 0.00 0.00 1019.6
20260504025628 -17 210 0.0 0.0 0.00 0.00 0.00 1019.6
20260504025126 -17 196 0.0 0.0 0.00 0.00 0.00 1019.5
20260504024856 -17 232 0.0 0.0 0.00 0.00 0.00 1019.4
20260504024124 -17 232 0.0 0.0 0.00 0.00 0.00 1019.3
20260504023625 -17 231 0.0 0.0 0.00 0.00 0.00 1019.4
20260504023125 -17 231 0.0 0.0 0.00 0.00 0.00 1019.4
20260504022621 -17 220 0.0 0.0 0.00 0.00 0.00 1019.4
20260504022121 -17 206 0.0 0.0 0.00 0.00 0.00 1019.3
20260504021620 -17 220 0.0 0.0 0.00 0.00 0.00 1019.3
20260504021121 -17 233 0.0 0.0 0.00 0.00 0.00 1019.2
20260504020620 -17 213 0.0 0.0 0.00 0.00 0.00 1019.1
20260504020121 -17 240 0.0 0.0 0.00 0.00 0.00 1019.0
20260504015848 -17 239 0.0 0.0 0.00 0.00 0.00 1018.9
20260504015348 -17 174 0.0 0.0 0.00 0.00 0.00 1018.9
20260504014618 -17 165 0.0 0.0 0.00 0.00 0.00 1018.9
20260504014349 -17 162 0.0 0.0 0.00 0.00 0.00 1018.8
20260504013616 -17 311 0.0 0.0 0.00 0.00 0.00 1018.7
20260504013117 -17 311 0.0 0.0 0.00 0.00 0.00 1018.7
20260504012612 -17 311 0.0 0.0 0.00 0.00 0.00 1018.8
20260504012113 -17 311 0.0 0.0 0.00 0.00 0.00 1018.6
20260504011613 -17 311 0.0 0.0 0.00 0.00 0.00 1018.7
20260504011113 -17 311 0.0 0.0 0.00 0.00 0.00 1018.6
20260504010612 -17 311 0.0 0.0 0.00 0.00 0.00 1018.6
20260504010110 -17 311 0.0 0.0 0.00 0.00 0.00 1018.5
20260504005839 -17 311 0.0 0.0 0.00 0.00 0.00 1018.5
20260504005109 -17 311 0.0 0.0 0.00 0.00 0.00 1018.5
20260504004607 -17 311 0.0 0.0 0.00 0.00 0.00 1018.4
20260504004107 -17 311 0.0 0.0 0.00 0.00 0.00 1018.4
20260504003604 -17 313 0.0 0.0 0.00 0.00 0.00 1018.4
20260504003100 -17 313 0.0 0.0 0.00 0.00 0.00 1018.4
20260504002600 -17 311 0.0 0.0 0.00 0.00 0.00 1018.4
20260504002100 -17 296 0.0 0.0 0.00 0.00 0.00 1018.3
20260504001828 -17 296 0.0 0.0 0.00 0.00 0.00 1018.2
20260504001058 -17 295 0.0 0.0 0.00 0.00 0.00 1018.3
20260504000558 -17 325 0.0 0.0 0.00 0.00 0.00 1018.3
20260504000056 -17 355 0.0 0.0 0.00 0.00 0.00 1018.3
20260503235557 -17 319 0.0 0.0 0.00 0.00 0.00 1018.3
20260503235054 -17 281 0.0 0.0 0.00 0.00 0.00 1018.3
20260503234556 -17 286 0.0 0.0 0.00 0.00 0.00 1018.3
20260503234048 -17 331 0.0 0.0 0.00 0.00 0.00 1018.4
20260503233546 -17 13 0.0 0.0 0.00 0.00 0.00 1018.4
20260503233044 -17 346 0.0 0.0 0.00 0.00 0.00 1018.4
20260503232542 -17 306 0.0 0.0 0.00 0.00 0.00 1018.4
20260503232044 -17 276 0.0 0.0 0.00 0.00 0.00 1018.5
20260503231540 -17 305 0.0 0.0 0.00 0.00 0.00 1018.5
20260503231038 -17 310 0.0 0.0 0.00 0.00 0.00 1018.6
20260503230538 -17 302 0.0 0.0 0.00 0.00 0.00 1018.6
20260503230039 -17 331 0.0 0.0 0.00 0.00 0.00 1018.6
20260503225536 -17 336 0.0 0.0 0.00 0.00 0.00 1018.5
20260503225306 -17 303 0.0 0.0 0.00 0.00 0.00 1018.7
20260503224534 -17 300 0.0 0.0 0.00 0.00 0.00 1018.7
20260503224038 -17 355 0.0 0.0 0.00 0.00 0.00 1018.6
20260503224034 -17 350 0.0 0.0 0.00 0.00 0.00 1018.7
20260503223304 -17 323 0.0 0.0 0.00 0.00 0.00 1018.7
20260503222531 -17 331 0.0 0.0 0.00 0.00 0.00 1018.7
20260503222029 -17 275 0.0 0.0 0.00 0.00 0.00 1018.7
20260503221759 -17 298 0.0 0.0 0.00 0.00 0.00 1018.8
20260503221026 -17 267 0.0 0.0 0.00 0.00 0.00 1018.8
20260503220524 -17 30 0.0 0.0 0.00 0.00 0.00 1019.0
20260503220024 -17 40 0.0 0.0 0.00 0.00 0.00 1018.9
20260503215755 -17 293 0.0 0.0 0.00 0.00 0.00 1019.0
20260503215026 -17 5 0.0 0.0 0.00 0.00 0.00 1019.1
20260503214518 -17 308 0.0 0.0 0.00 0.00 0.00 1019.2
20260503214016 -17 306 0.0 0.0 0.00 0.00 0.00 1019.2
20260503213514 -17 309 0.0 0.0 0.00 0.00 0.00 1019.3
20260503213012 -17 31 0.0 0.0 0.00 0.00 0.00 1019.3
20260503212517 -17 306 0.0 0.0 0.00 0.00 0.00 1019.4
20260503212511 -17 306 0.0 0.0 0.00 0.00 0.00 1019.6
20260503211507 -17 346 0.0 0.0 0.00 0.00 0.00 1019.5
20260503211006 -17 355 0.0 0.0 0.00 0.00 0.00 1019.6
20260503210505 -17 321 0.0 0.0 0.00 0.00 0.00 1019.7
20260503210237 -17 342 0.0 0.0 0.00 0.00 0.00 1019.8
20260503205505 -17 336 0.0 0.0 0.00 0.00 0.00 1019.9